Location: Brahman Valley
(40.6513°N, 111.8855°W)
Time: 21:48:59
(UTC+00:00)

Vanguard 2 - Pass Details

Date: 20 May 2021
Orbit: 552 x 2937 km, 32.9° (Epoch: 14 June)

Event Time Altitude Azimuth Distance (km) Brightness Sun altitude
Rises 18:19:09 0° 270° (W) 5,810 11.9 65.3°
Reaches altitude 10° 18:24:45 10° 253° (WSW) 5,186 11.8 65.9°
Maximum altitude 18:33:22 17° 219° (SW) 4,986 12.0 66.8°
Drops below altitude 10° 18:42:54 10° 186° (S) 5,757 12.4 67.7°
Sets 18:49:55 0° 169° (S) 6,713 12.6 68.2°
